Weather History for Eagle, AK

Change the Weather History Date:

Sunday, September 29, 2013

  Actual Average (PABN) Record (PABN)
Temperature  
Mean Temperature 36 °F -  
Max Temperature 46 °F 36 °F 51 °F (2002)
Min Temperature 28 °F 24 °F 15 °F (1998)
Degree Days  
Heating Degree Days 28    
Moisture  
Dew Point 28 °F    
Average Humidity 74    
Maximum Humidity 96    
Minimum Humidity 48    
Precipitation  
Precipitation 0.00 in - - ()
Sea Level Pressure  
Sea Level Pressure 29.47 in    
Wind  
Wind Speed 3 mph (NNW)    
Max Wind Speed 9 mph    
Max Gust Speed 17 mph    
Visibility 10 miles    
Events      
Averages and records for this station are not official NWS values.
T = Trace of Precipitation, MM = Missing Value Source: NWS Daily Summary

Daily Weather History Graph

Daily Weather History Graph

Search for Another Location

Airport:

Trip Planner

Search our weather history database for the weather conditions in past years. The results will help you decide how hot, cold, wet, or windy it might be!

Date:

Astronomy

Sep. 29, 2013 Rise Set
Actual Time 7:29 AM AKDT 6:58 PM AKDT
Civil Twilight 6:40 AM AKDT 7:46 PM AKDT
Nautical Twilight 5:42 AM AKDT 8:44 PM AKDT
Astronomical Twilight 4:38 AM AKDT 9:47 PM AKDT
Moon 12:38 AM AKDT (9/29) 5:25 PM AKDT (9/29)
Length of Visible Light 13h 06m
Length of Day
11h 29m
Waning Crescent, 26% of the Moon is Illuminated
Sep 29
Waning Crescent
Oct 4
New
Oct 11
First Quarter
Oct 18
Full
Oct 26
Last Quarter

Hourly Weather History & Observations

Time (AKDT) Temp. Windchill Dew Point Humidity Pressure Visibility Wind Dir Wind Speed Gust Speed Precip Events Conditions
12:53 AM 30.0 °F 26.5 °F 28.9 °F 96% 29.35 in 10.0 mi WSW 3.5 mph - N/A   Clear
1:53 AM 30.9 °F 27.5 °F 30.0 °F 96% 29.37 in 10.0 mi WSW 3.5 mph - N/A   Clear
2:53 AM 30.9 °F 27.5 °F 30.0 °F 96% 29.38 in 10.0 mi SW 3.5 mph - N/A   Clear
3:53 AM 32.0 °F - 30.9 °F 96% 29.39 in 10.0 mi Calm Calm - N/A   Partly Cloudy
4:53 AM 33.1 °F 30.0 °F 30.9 °F 92% 29.39 in 10.0 mi West 3.5 mph - N/A   Scattered Clouds
5:53 AM 33.1 °F - 30.9 °F 92% 29.41 in 10.0 mi Calm Calm - N/A   Mostly Cloudy
6:53 AM 30.9 °F - 30.0 °F 96% 29.42 in 10.0 mi Calm Calm - N/A   Scattered Clouds
7:53 AM 34.0 °F - 32.0 °F 92% 29.43 in 10.0 mi Calm Calm - N/A   Overcast
8:53 AM 36.0 °F - 34.0 °F 93% 29.44 in 10.0 mi Calm Calm - N/A   Mostly Cloudy
9:53 AM 39.9 °F 37.8 °F 33.1 °F 77% 29.44 in 10.0 mi NW 3.5 mph - N/A   Clear
10:53 AM 41.0 °F 39.0 °F 34.0 °F 76% 29.45 in 10.0 mi WNW 3.5 mph - N/A   Mostly Cloudy
11:53 AM 43.0 °F 40.3 °F 30.0 °F 60% 29.46 in 10.0 mi NW 4.6 mph - N/A   Mostly Cloudy
12:53 PM 45.0 °F 41.2 °F 26.1 °F 48% 29.48 in 10.0 mi NNE 6.9 mph - N/A   Overcast
1:53 PM 45.0 °F 41.2 °F 26.1 °F 48% 29.49 in 10.0 mi NNE 6.9 mph 17.3 mph N/A   Overcast
2:53 PM 45.0 °F 40.1 °F 26.1 °F 48% 29.49 in 10.0 mi North 9.2 mph - N/A   Overcast
3:53 PM 45.0 °F 40.6 °F 26.1 °F 48% 29.50 in 10.0 mi North 8.1 mph - N/A   Mostly Cloudy
4:53 PM 43.0 °F 37.7 °F 26.1 °F 51% 29.51 in 10.0 mi North 9.2 mph - N/A   Overcast
5:53 PM 42.1 °F 37.7 °F 26.1 °F 53% 29.53 in 10.0 mi NNE 6.9 mph - N/A   Overcast
6:53 PM 41.0 °F 37.1 °F 25.0 °F 53% 29.54 in 10.0 mi NNE 5.8 mph - N/A   Mostly Cloudy
7:53 PM 39.9 °F - 25.0 °F 55% 29.55 in 10.0 mi Calm Calm - N/A   Overcast
8:53 PM 35.1 °F - 25.0 °F 67% 29.57 in 10.0 mi Calm Calm - N/A   Overcast
9:53 PM 33.1 °F - 26.1 °F 75% 29.57 in 10.0 mi Calm Calm - N/A   Overcast
10:53 PM 28.9 °F - 24.1 °F 82% 29.58 in 10.0 mi Calm Calm - N/A   Partly Cloudy
11:53 PM 28.9 °F - 24.1 °F 82% 29.60 in 10.0 mi Calm Calm - N/A   Mostly Cloudy